Powrót do katalogu

FENGYUN 1C DEB *

LostPO
NORAD 47103·DEBRIS·🇨🇳 China

Wystrzelony May 10, 1999 z Taiyuan Satellite Launch Center

Loading…

Następne Przeloty (najbliższe 24 godziny)

TLE

NieaktualneSource: Space-Track

Epoka: Jan 22, 2022, 08:35 UTC

1 47103U 99025FCB 22022.35805124  .00000968  00000-0  58275-3 0  9999
2 47103  97.9520  62.1103 0178118  69.9840 292.0408 14.00999970493137

Śledź FENGYUN 1C DEB * w czasie rzeczywistym z AllMySat

Download on the App Store